User: anonymous   Login
Location: Unspecified
(0.0000°N, 0.0000°E)
Time: 09:30:39
(UTC+00:00)
Language:

A-11 Canister half - Orbit

View from above orbital plane
View from above orbital plane
View from above satellite
View from above satellite

Ground track
Ground track

The orbit data is extracted from the following two-line orbital elements,

1    53U 60009E   18115.87503730 -.00000084 +00000-0 +00000-0 0  9995
2    53 047.2750 155.3379 0099838 284.8859 074.0891 12.17212551573123
Epoch (UTC): 25 April 2018 21:00:03
Eccentricity: 0.0099838
inclination: 47.2750°
perigee height: 1525 km
apogee height: 1684 km
right ascension of ascending node: 155.3379°
argument of perigee: 284.8859°
revolutions per day: 12.17212551
mean anomaly at epoch: 74.0891°
orbit number at epoch: 57312

The dashed part of the orbit path shows where the satellite is in the earth's shadow,  

DLR